Olathe, KS

7:13 PM CDT on July 21, 2017 (GMT -0500)
Johnson County Executive

Weather History for KOJC - June, 2012

Change the Weather History Date:

Thursday, June 28, 2012

  Actual Average Record
Temperature  
Mean Temperature 89 °F 76 °F  
Max Temperature 103 °F 86 °F 103 °F (2012)
Min Temperature 74 °F 67 °F 55 °F (1985)
Degree Days  
Heating Degree Days 0 0  
Month to date heating degree days 8 6  
Since 1 June heating degree days 8 6  
Since 1 July heating degree days 3815 4932  
Cooling Degree Days 24 11  
Month to date cooling degree days 326 235  
Year to date cooling degree days 586 339  
Since 1 June cooling degree days 326 235  
Growing Degree Days 38 (Base 50)    
Moisture  
Dew Point 62 °F    
Average Humidity 44    
Maximum Humidity 64    
Minimum Humidity 23    
Precipitation  
Precipitation 0.00 in 0.13 in 2.20 in (1983)
Month to date precipitation 1.51 5.51  
Year to date precipitation 12.90 20.25  
Sea Level Pressure  
Sea Level Pressure 29.88 in    
Wind  
Wind Speed 9 mph (SSW)    
Max Wind Speed 17 mph    
Max Gust Speed 24 mph    
Visibility 10 miles    
Events      
T = Trace of Precipitation, MM = Missing Value Source: NWS Daily Summary

Daily Weather History Graph

Daily Weather History Graph

Search for Another Location

Airport or City:

Trip Planner

Search our weather history database for the weather conditions in past years. The results will help you decide how hot, cold, wet, or windy it might be!

Date:

Astronomy

Jun. 28, 2012 Rise Set
Actual Time 5:56 AM CDT 8:48 PM CDT
Civil Twilight 5:24 AM CDT 9:20 PM CDT
Nautical Twilight 4:44 AM CDT 10:00 PM CDT
Astronomical Twilight 3:58 AM CDT 10:46 PM CDT
Moon 3:25 PM CDT (6/28) 1:27 AM CDT (6/28)
Length of Visible Light 15h 55m
Length of Day
14h 51m
Waxing Gibbous, 67% of the Moon is Illuminated
Jun 28
Waxing Gibbous
Jul 3
Full
Jul 10
Last Quarter
Jul 18
New
Jul 26
First Quarter

Hourly Weather History & Observations

Time (CDT) Temp. Heat Index Dew Point Humidity Pressure Visibility Wind Dir Wind Speed Gust Speed Precip Events Conditions
12:53 AM 84.0 °F 85.8 °F 64.9 °F 53% 29.84 in 10.0 mi SSW 12.7 mph 18.4 mph N/A   Clear
1:53 AM 82.9 °F 84.0 °F 63.0 °F 51% 29.84 in 10.0 mi SSW 12.7 mph 20.7 mph N/A   Clear
2:53 AM 81.0 °F 82.5 °F 64.0 °F 56% 29.83 in 10.0 mi SSW 12.7 mph 19.6 mph N/A   Clear
3:53 AM 80.1 °F 81.5 °F 63.0 °F 56% 29.85 in 10.0 mi SSW 11.5 mph - N/A   Clear
4:53 AM 78.1 °F - 63.0 °F 60% 29.87 in 10.0 mi SW 5.8 mph - N/A   Clear
5:53 AM 75.0 °F - 63.0 °F 66% 29.89 in 10.0 mi SW 5.8 mph - N/A   Clear
6:53 AM 75.9 °F - 63.0 °F 64% 29.92 in 10.0 mi WSW 5.8 mph - N/A   Clear
7:53 AM 80.1 °F 81.5 °F 63.0 °F 56% 29.91 in 10.0 mi SW 9.2 mph - N/A   Clear
8:53 AM 84.0 °F 84.4 °F 61.0 °F 46% 29.91 in 10.0 mi SW 13.8 mph 20.7 mph N/A   Clear
9:53 AM 88.0 °F 87.6 °F 60.1 °F 39% 29.91 in 10.0 mi SW 11.5 mph 23.0 mph N/A   Clear
10:53 AM 91.9 °F 91.8 °F 61.0 °F 35% 29.91 in 10.0 mi WSW 10.4 mph - N/A   Clear
11:53 AM 95.0 °F 97.0 °F 64.0 °F 36% 29.91 in 10.0 mi SSW 9.2 mph 17.3 mph N/A   Clear
12:53 PM 97.0 °F 99.3 °F 64.0 °F 34% 29.91 in 10.0 mi SSW 8.1 mph - N/A   Clear
1:53 PM 99.0 °F 100.5 °F 63.0 °F 30% 29.89 in 10.0 mi South 9.2 mph 18.4 mph N/A   Clear
2:53 PM 102.9 °F 103.0 °F 57.9 °F 23% 29.88 in 10.0 mi SW 11.5 mph - N/A   Clear
3:53 PM 100.9 °F 99.6 °F 55.9 °F 22% 29.87 in 10.0 mi SSW 13.8 mph 21.9 mph N/A   Clear
4:53 PM 100.9 °F 102.1 °F 61.0 °F 27% 29.87 in 10.0 mi SSW 12.7 mph - N/A   Clear
5:53 PM 100.0 °F 101.2 °F 61.0 °F 28% 29.86 in 10.0 mi South 9.2 mph 16.1 mph N/A   Clear
6:53 PM 97.0 °F 97.4 °F 61.0 °F 30% 29.86 in 10.0 mi South 10.4 mph - N/A   Clear
7:53 PM 91.9 °F 92.5 °F 62.1 °F 37% 29.87 in 10.0 mi South 9.2 mph - N/A   Clear
8:53 PM 87.1 °F 87.5 °F 62.1 °F 43% 29.88 in 10.0 mi South 5.8 mph - N/A   Clear
9:53 PM 82.9 °F 83.7 °F 62.1 °F 49% 29.89 in 10.0 mi South 5.8 mph - N/A   Clear
10:53 PM 82.9 °F 83.7 °F 62.1 °F 49% 29.89 in 10.0 mi South 5.8 mph - N/A   Clear
11:53 PM 82.0 °F 83.1 °F 63.0 °F 52% 29.89 in 10.0 mi SSW 5.8 mph - N/A   Clear